HTKA

Kigoma Airport

Airport
ICAO code
HTKA
IATA Code
TKQ
Summary
ICAO Region
AFI
ICAO Territory
Location

Ujiji, Kigoma Region

Serving
Kigoma
Elevation
2700 ft
Coordinates
4° 53' 10" S , 29° 40' 15" E
KCC
Metar
HTKA 222000Z VRB02KT CAVOK 21/17 Q1017 NOSIG

Kigoma Airport is an airport in western Tanzania serving Kigoma.

Climatology

Tropical Savanna climate (Köppen climate classification Aw)

Runways

Designator Length Width Surface Rops
16/34 1767 0 UNK No/No

Airport map

Aerial View

SKYbrary Partners:

Safety knowledge contributed by: